Location: Boca do Mato
(22.9085°S, 43.2930°W)
Time: 22:28:00
(UTC+00:00)

Cosmos 2082 - Pass Details

Date: 14 July 2020
Orbit: 835 x 854 km, 71.0° (Epoch: 10 August)

Event Time Altitude Azimuth Distance (km) Brightness Sun altitude
Exits shadow 08:51:12 - 212° (SSW) 2,996 6.1 -9.9°
Reaches altitude 10° 08:52:36 10° 216° (SW) 2,498 5.7 -9.6°
Maximum altitude 08:57:54 40° 283° (WNW) 1,241 4.2 -8.5°
Drops below altitude 10° 09:03:10 10° 352° (N) 2,464 6.3 -7.4°
Sets 09:05:43 0° 359° (N) 3,389 7.1 -6.8°
